GFSNGP_con_lsi_021.txt.gz
Lid_Strength_Index
12 11 11 12 12 12 13 12 13 11 11 9 9 8 8 7 6 6 6 6 5 5 5 4 4 4 3 3 2 3 2 2 2 2 2 2 2 2 2 1 2 1 1 1
14 11 11 13 12 12 12 12 11 10 11 7 8 7 7 7 6 6 6 5 5 5 4 4 4 4 3 3 3 2 2 2 2 2 2 2 2 2 2 2 1 1 1 2
17 13 13 15 13 12 11 10 10 13 10 8 8 8 8 7 6 6 6 5 5 4 4 4 4 4 4 3 3 2 2 2 2 2 2 2 2 2 2 2 1 2 2 3
17 15 20 12 9 8 10 9 9 9 8 8 7 7 7 6 6 6 5 5 4 4 4 4 4 3 3 3 3 3 2 2 2 2 2 2 2 2 2 2 3 3 2 3
18 18 15 13 11 12 13 13 9 9 9 9 7 7 8 5 5 5 5 4 4 3 3 4 4 3 3 3 3 3 2 2 2 2 2 2 2 2 2 2 2 2 2 4
16 19 20 14 10 9 9 16 9 8 8 8 8 12 10 6 5 5 5 4 4 3 3 4 4 3 3 4 3 4 2 2 2 2 2 2 2 2 2 2 2 1 2 3
16 17 15 10 10 10 16 15 8 7 7 8 9 8 7 6 5 5 5 4 3 3 4 4 4 3 4 4 4 3 2 2 2 2 2 2 2 2 2 2 2 2 2 3
15 17 19 11 10 13 10 8 7 7 7 8 7 6 6 5 5 4 5 4 3 3 4 4 4 3 4 4 3 2 2 2 2 2 2 2 2 3 2 2 3 3 3 3
14 14 9 9 9 7 6 7 7 6 6 6 6 6 6 5 5 4 5 5 3 3 4 4 4 3 4 3 3 2 2 2 2 2 2 2 3 3 2 2 3 3 3 3
12 10 9 9 8 7 7 7 6 6 6 6 6 6 5 5 5 4 4 4 3 3 4 5 5 3 2 3 2 2 3 2 3 2 2 2 2 3 2 3 3 3 3 3
11 9 8 7 8 8 7 6 7 6 6 5 5 6 5 6 5 6 5 4 3 4 4 5 5 4 2 3 2 3 2 2 3 2 2 3 3 4 3 4 2 2 2 2
13 8 8 8 7 7 7 7 6 6 6 5 5 5 5 6 6 6 5 4 4 3 4 4 4 3 2 3 2 3 3 3 3 3 2 2 5 6 11 11 10 8 7 4
8 6 6 6 6 6 7 6 6 5 5 6 5 5 5 6 6 6 5 5 4 4 3 4 4 4 2 2 2 2 3 3 3 3 3 3 4 5 6 6 10 13 11 8
6 6 7 6 7 6 6 6 5 4 4 5 5 5 6 7 6 6 6 5 5 3 3 4 4 4 3 2 2 2 3 7 3 4 3 3 3 3 4 5 5 5 10 10
6 5 6 6 5 6 6 6 7 5 5 5 5 5 5 7 7 6 5 5 5 4 3 3 4 4 4 3 2 2 2 3 3 3 3 3 3 3 3 4 4 5 6 9
5 6 5 6 6 6 6 6 7 6 6 5 5 5 5 5 5 6 5 5 6 6 4 3 3 2 3 4 2 2 2 5 5 3 3 3 3 3 4 3 4 5 5 4
8 8 7 6 6 7 6 6 6 6 6 6 6 6 5 5 5 5 5 5 6 4 4 4 5 2 1 4 4 2 2 4 5 3 4 4 3 4 4 3 3 4 5 5
5 6 6 6 6 7 6 6 6 6 6 6 6 6 6 6 6 6 5 6 5 6 4 4 6 3 4 5 4 3 2 2 3 3 3 4 4 3 4 4 3 3 3 5
5 5 6 6 6 6 6 6 7 7 7 6 7 7 7 7 7 7 6 6 7 7 5 5 9 6 5 9 9 3 3 3 3 3 3 5 5 3 3 3 3 3 2 4
4 4 5 5 5 6 6 6 7 7 7 7 7 8 8 8 7 7 6 6 7 8 8 7 6 6 6 8 11 4 3 3 3 3 3 3 3 4 4 6 3 3 3 4
4 4 5 5 5 5 5 6 6 7 7 7 8 8 8 8 7 7 7 8 8 8 8 8 7 8 6 9 8 5 2 3 3 3 3 4 4 4 3 4 3 3 3 3
4 4 4 4 5 5 6 6 7 7 8 8 8 8 8 9 8 9 7 8 8 11 10 6 6 12 12 13 7 6 5 2 3 3 4 3 4 4 4 4 4 4 3 3
4 3 4 4 5 5 5 5 5 6 7 7 8 8 9 9 9 10 11 9 9 10 9 6 11 14 14 7 6 7 5 4 3 3 3 3 4 4 4 4 4 4 4 4
4 4 4 4 4 5 6 6 5 5 6 7 7 8 9 10 10 9 9 10 12 12 10 10 11 12 12 5 5 6 6 5 4 4 3 8 3 2 4 4 5 4 4 7
3 3 4 4 5 6 5 5 6 6 7 7 7 8 8 8 10 10 9 10 11 11 10 12 13 12 8 7 6 6 5 5 4 4 3 3 3 3 3 3 3 3 3 3
4 4 4 4 5 5 6 6 6 7 7 8 7 7 8 8 9 10 10 11 10 11 11 11 9 10 10 10 9 9 8 6 6 5 4 3 3 3 3 3 3 3 3 3
4 4 4 4 5 5 5 5 6 7 7 7 8 8 8 8 9 10 11 10 11 11 11 12 12 12 12 11 11 11 11 10 11 8 7 7 7 6 4 3 3 3 3 3

GFSNGP_con_lsi_024.txt.gz
Lid_Strength_Index
13 12 12 13 12 12 13 13 16 13 14 12 11 10 8 7 7 7 7 6 6 5 5 4 4 4 3 4 3 3 2 2 2 2 2 2 2 2 1 1 1 1 1 2
14 12 12 13 12 11 12 12 13 12 14 10 8 8 8 7 7 7 7 6 5 5 5 4 4 4 4 4 3 3 2 3 2 2 2 2 2 2 3 2 1 1 2 3
17 13 13 16 13 12 12 10 11 14 12 9 9 9 9 7 7 7 6 6 5 5 4 4 4 4 4 4 3 2 2 2 2 2 2 2 2 2 3 2 2 2 3 4
17 15 20 13 10 10 10 10 9 10 9 8 8 8 7 7 6 6 6 5 5 4 4 4 4 5 4 3 3 3 2 2 2 2 2 2 2 2 3 3 3 3 4 4
17 18 14 13 11 12 13 13 10 11 9 8 8 7 8 6 6 5 5 4 4 4 4 5 5 4 3 3 3 3 3 3 2 2 2 2 2 3 3 3 3 4 4 4
15 19 20 14 10 8 9 16 9 9 9 9 8 12 10 6 5 6 5 4 4 3 4 5 5 3 3 4 4 3 2 3 2 2 2 2 2 3 3 3 2 2 3 4
16 18 15 12 11 9 17 15 9 8 8 9 10 8 7 6 5 5 5 4 3 4 5 5 5 3 4 4 4 3 2 2 2 2 3 2 3 3 3 3 3 2 4 4
15 17 19 10 10 13 10 8 8 8 7 8 7 6 6 5 5 5 5 4 3 5 5 5 5 3 4 4 4 2 2 2 2 2 2 2 3 3 3 3 4 4 4 4
14 14 11 10 9 7 7 9 8 8 7 6 6 7 6 6 6 6 4 4 4 5 5 5 5 3 4 4 4 2 3 3 2 2 2 2 3 3 3 4 4 4 4 3
12 10 9 9 8 7 8 8 8 7 7 7 7 7 7 7 6 6 4 4 4 5 5 6 6 3 3 4 3 2 3 3 2 3 3 3 3 3 3 3 3 3 3 4
11 9 8 8 8 8 8 7 7 7 7 7 7 8 8 7 7 6 6 5 4 5 5 6 6 5 3 3 2 3 3 3 3 3 3 4 5 4 3 2 3 3 3 3
13 8 8 8 6 7 7 8 7 8 7 7 7 8 8 8 7 6 6 6 4 5 5 5 5 5 3 3 2 2 3 3 3 3 3 4 6 7 12 11 11 9 7 4
9 7 6 6 7 7 7 7 6 7 7 7 7 7 7 8 8 7 6 6 6 5 4 4 5 5 2 3 2 2 3 3 3 3 3 4 5 5 6 8 11 12 11 9
6 6 8 7 8 7 6 6 7 6 7 7 7 6 7 7 7 7 7 7 6 4 3 4 5 5 4 3 2 2 2 7 2 2 2 3 5 6 6 6 5 6 12 11
6 6 6 6 7 7 6 6 7 8 7 7 7 7 7 8 8 7 6 6 6 5 4 4 4 4 4 4 2 2 2 3 2 3 3 4 4 5 6 6 6 5 7 10
6 6 6 6 7 7 7 8 8 8 8 7 7 7 7 6 7 8 6 6 7 6 5 4 4 4 3 5 4 2 2 6 5 3 4 4 3 4 5 5 6 6 5 4
9 8 8 7 7 8 8 8 8 8 8 8 7 7 7 7 7 8 7 6 5 5 6 5 4 5 5 5 4 3 2 4 6 4 4 4 4 4 3 4 5 6 5 6
6 7 7 6 7 8 8 7 8 8 8 8 7 7 8 8 9 8 7 6 7 7 8 7 6 6 7 8 7 5 3 3 4 3 3 4 3 4 3 3 4 4 5 6
6 6 7 7 7 7 7 8 8 8 8 7 8 8 8 8 8 8 7 8 8 10 10 8 10 8 7 9 8 4 4 3 3 3 3 6 5 4 4 3 3 3 4 5
5 5 6 7 6 6 6 7 8 8 8 8 8 8 8 9 8 8 8 9 9 11 11 10 8 9 8 8 10 5 3 3 4 4 5 5 4 5 4 7 3 2 3 4
5 5 5 7 7 7 6 7 8 8 8 8 9 9 9 8 9 9 10 11 10 11 12 10 8 9 9 11 8 6 6 3 3 4 4 5 5 5 5 4 4 4 2 2
5 5 5 6 7 7 7 8 7 8 8 9 9 9 10 11 10 10 9 11 11 13 11 9 10 13 11 11 6 6 6 5 4 4 3 4 5 5 5 5 5 5 5 3
5 4 5 5 6 6 7 7 7 7 8 9 10 10 10 11 11 11 12 11 11 13 10 11 14 15 14 8 7 7 6 6 6 5 4 4 3 3 4 5 5 5 5 5
4 5 5 4 6 6 7 7 8 8 8 8 9 9 10 11 11 11 11 12 13 13 12 13 14 15 13 10 9 9 8 9 9 6 5 9 3 3 3 4 4 5 6 7
4 4 6 5 6 6 6 7 7 8 8 9 9 9 9 9 11 11 11 11 13 13 13 14 14 14 12 12 11 11 11 11 11 9 9 8 7 6 5 4 3 4 4 5
5 4 5 6 6 6 7 7 8 8 8 9 9 9 9 9 10 10 11 12 12 13 13 13 14 14 13 13 13 13 12 12 12 11 11 10 10 9 8 8 8 6 4 4
4 6 5 6 6 6 6 7 8 9 9 9 10 10 10 9 10 10 12 12 12 13 13 13 14 14 14 14 14 14 13 13 13 13 12 12 12 11 10 10 9 9 8 7

GFSNGP_con_lsi_030.txt.gz
Lid_Strength_Index
13 12 12 13 13 13 13 13 17 16 16 12 12 12 11 9 7 8 7 7 6 6 5 6 5 4 4 3 3 3 3 2 3 3 2 2 2 2 2 1 1 1 1 2
14 12 12 14 12 12 12 13 14 14 15 10 11 11 11 8 8 8 8 7 6 5 5 5 4 4 4 3 3 2 2 3 2 2 3 2 2 2 2 1 1 1 2 2
17 12 13 16 13 12 12 11 13 16 13 10 11 11 10 8 7 8 7 6 6 5 5 4 4 3 4 4 3 3 2 2 2 2 2 2 2 2 2 1 1 2 2 3
17 16 21 13 9 10 11 10 10 11 10 9 9 8 7 7 7 7 6 6 5 5 4 4 4 4 4 4 3 3 3 3 2 2 2 2 2 2 2 1 2 2 3 3
18 18 14 12 11 12 13 13 9 11 10 9 8 8 8 6 6 6 5 5 4 4 4 4 4 4 4 4 3 3 3 3 2 2 2 2 2 3 2 2 2 3 3 3
16 19 20 14 10 8 9 16 9 9 9 9 9 13 10 6 5 5 5 5 5 4 4 4 4 4 4 4 3 3 3 2 2 2 2 2 3 3 2 2 2 2 3 3
16 17 15 10 9 9 17 16 9 8 8 9 10 9 7 6 5 5 5 5 4 4 4 4 5 5 4 4 3 2 2 2 2 2 2 2 2 2 2 2 2 3 4 3
15 17 19 10 11 13 10 8 8 8 7 9 9 7 6 6 6 5 5 5 4 4 5 5 5 4 5 4 3 2 2 2 2 2 2 2 2 2 2 2 3 4 4 4
14 14 11 11 11 9 8 8 7 7 7 8 8 8 7 6 5 5 4 4 4 4 5 5 5 4 5 4 3 2 3 3 3 2 2 2 2 3 3 3 3 4 3 4
13 11 11 9 9 6 6 7 6 6 6 7 9 8 7 6 6 5 4 4 4 5 5 6 5 5 3 4 3 3 3 3 3 2 3 2 2 2 3 3 3 4 4 4
12 10 9 9 7 6 6 6 7 7 7 7 8 8 7 7 6 6 6 4 5 5 5 5 5 5 5 3 2 3 3 3 3 3 2 3 3 3 3 2 3 2 3 3
13 9 9 9 7 6 8 8 6 8 8 8 8 8 7 7 6 6 5 5 5 5 5 5 5 5 5 2 2 3 3 3 3 3 3 3 4 6 12 10 9 9 9 4
9 7 7 7 6 5 7 7 7 7 8 9 8 8 9 8 7 7 6 5 4 4 5 5 5 5 4 2 2 2 3 3 3 3 3 4 3 3 4 7 12 11 12 10
6 7 8 8 8 6 7 7 7 8 8 9 9 9 9 8 7 7 7 7 6 4 4 4 5 5 4 2 2 2 2 7 2 2 3 4 3 3 3 4 4 4 11 11
7 8 8 7 8 8 7 8 9 10 9 9 9 9 8 8 8 8 7 7 7 7 7 6 5 5 3 2 2 2 2 2 2 2 3 4 4 3 4 4 3 3 6 10
7 8 9 9 9 9 9 10 10 10 10 10 9 9 9 8 9 9 9 8 9 10 8 8 8 6 6 3 2 2 2 6 5 2 3 4 4 4 4 4 4 3 4 4
9 10 10 10 10 11 11 10 10 10 10 10 10 9 9 9 10 10 10 10 9 10 9 9 9 7 6 7 3 2 2 3 6 2 3 3 3 4 4 5 5 4 3 5
7 9 9 9 10 11 10 10 10 11 11 10 9 10 10 9 10 11 11 10 10 10 10 9 9 8 5 7 5 3 2 2 3 2 2 3 3 3 4 4 5 5 5 6
7 8 8 8 9 10 10 11 10 11 11 11 10 11 10 11 11 11 11 12 13 12 12 10 12 9 7 8 6 3 3 2 2 2 2 5 3 3 3 3 4 4 4 5
6 6 7 8 8 9 10 10 11 11 11 12 11 11 12 12 12 12 11 13 13 13 12 12 11 11 8 8 9 4 4 3 3 3 3 3 3 3 3 6 3 3 3 4
6 6 7 8 9 9 9 10 11 12 11 11 11 11 11 11 12 12 13 14 14 14 13 14 13 13 10 9 7 7 5 4 4 3 3 4 4 4 4 4 4 3 3 2
5 6 7 8 8 9 9 9 10 11 11 12 12 12 12 12 11 12 13 13 13 15 14 14 14 16 13 13 10 10 9 8 7 7 6 5 4 3 3 3 3 3 3 4
6 5 7 8 8 9 9 9 10 10 11 11 12 12 13 13 12 13 14 13 13 14 14 14 16 16 15 12 12 12 12 11 11 10 10 8 7 7 7 7 6 5 6 5
6 6 7 7 8 8 10 10 10 10 11 11 11 12 12 13 13 12 12 13 14 14 14 14 15 15 14 13 13 13 13 13 13 13 12 13 11 10 9 9 9 8 8 9
6 6 6 7 8 9 9 9 10 11 11 11 11 11 12 12 13 13 13 13 14 13 13 14 14 14 13 13 13 14 14 14 14 13 13 13 13 13 13 12 12 11 11 10
6 6 6 7 7 8 9 10 11 11 11 12 12 12 12 12 12 13 13 13 13 13 13 13 13 13 13 13 13 14 14 14 14 14 14 14 14 13 13 13 13 13 13 13
7 7 7 7 7 8 8 9 10 11 11 11 12 12 12 13 13 13 13 13 13 14 13 13 13 14 13 14 14 14 14 14 15 14 14 14 14 14 13 13 13 13 13 14

GFSNGP_con_lsi_033.txt.gz
Lid_Strength_Index
11 11 11 11 11 11 12 11 14 11 12 10 9 8 8 7 7 7 6 6 6 5 5 4 3 3 2 2 2 1 2 2 2 1 1 1 1 1 0 0 0 0 0 0
13 10 10 12 10 10 10 10 11 11 12 9 8 7 8 7 8 7 5 6 5 5 4 4 3 3 2 2 2 1 2 2 1 1 1 1 1 1 1 0 0 1 1 1
15 11 11 14 11 10 10 9 10 13 11 10 10 9 8 7 7 6 5 5 5 5 4 4 3 3 3 2 1 2 2 2 1 1 1 1 1 1 1 1 1 1 1 0
15 14 19 10 8 9 10 10 9 9 9 10 10 8 7 7 6 5 5 5 5 4 4 3 2 2 2 2 2 2 2 2 1 1 2 1 1 1 1 1 1 1 1 1
16 16 12 11 11 12 13 12 8 8 8 9 10 8 7 6 4 5 4 4 4 3 3 3 2 2 2 2 2 2 2 2 2 1 1 1 1 1 1 1 1 1 1 1
14 17 18 13 10 8 9 15 7 7 8 8 10 11 9 5 4 4 4 3 4 3 3 3 2 2 2 2 2 2 2 2 1 1 1 1 1 1 1 1 1 1 1 1
15 17 14 10 9 8 16 14 8 8 8 8 9 8 5 5 5 4 4 3 3 3 3 3 2 2 3 2 2 2 1 1 1 1 1 1 1 1 1 1 1 1 1 1
15 17 18 10 11 13 10 8 8 8 7 7 7 6 5 5 5 4 4 4 3 3 3 2 2 2 3 3 1 1 1 1 1 1 1 1 1 1 1 1 2 2 2 2
13 14 10 9 12 11 9 9 9 8 6 6 6 6 5 5 4 4 4 3 3 3 3 2 2 2 3 2 1 1 1 2 1 1 1 1 1 1 2 1 2 2 2 2
13 10 10 9 8 6 6 6 6 5 5 5 6 6 5 5 4 4 4 4 3 3 3 3 2 2 1 1 1 1 2 2 1 1 2 1 1 1 2 2 2 2 3 3
12 10 9 8 8 6 6 5 5 5 6 6 5 5 5 5 5 4 4 4 3 3 3 3 2 2 1 1 1 2 2 2 2 1 1 2 1 1 1 1 1 2 2 2
13 9 9 9 6 6 7 7 7 7 7 8 7 6 5 5 4 4 4 3 4 3 3 3 2 2 2 1 1 2 2 2 2 2 2 2 2 2 12 10 10 10 8 4
8 6 7 7 6 6 8 8 7 8 9 10 8 7 5 5 4 6 4 4 3 3 3 2 2 2 1 1 1 1 2 2 2 2 2 2 2 2 3 6 13 13 12 10
6 6 9 8 9 8 8 8 7 8 8 9 9 7 6 6 6 6 6 5 3 3 2 2 3 3 1 1 1 1 1 7 2 2 2 2 2 2 2 2 3 2 11 9
6 6 7 7 8 8 8 8 9 10 9 10 9 8 7 7 7 7 6 5 5 4 3 4 4 4 2 1 1 1 1 1 1 1 1 2 1 1 1 2 2 2 4 8
6 7 7 8 8 9 9 9 10 10 10 9 9 8 8 8 8 8 7 6 7 7 6 6 5 4 3 1 1 1 1 6 4 1 2 2 2 2 2 2 2 2 2 2
7 8 9 9 10 10 10 10 9 10 9 9 9 9 8 8 9 9 7 7 8 9 8 7 6 4 3 1 1 1 1 1 6 1 2 1 2 2 2 2 2 2 2 2
5 7 8 9 10 10 10 10 10 10 10 9 9 9 9 9 10 11 10 9 8 9 11 9 10 5 3 4 1 1 1 1 1 2 1 2 2 1 1 2 2 2 1 3
5 6 7 8 9 10 10 10 10 11 10 9 10 10 11 11 11 11 12 12 12 12 12 10 12 8 6 7 4 1 1 1 2 1 1 4 2 1 2 1 1 1 1 2
4 5 6 7 9 10 10 10 10 11 11 10 10 11 12 13 12 11 10 13 13 13 12 11 10 8 7 8 9 2 1 1 2 2 1 1 1 1 1 5 2 1 1 1
4 5 6 7 8 10 10 10 10 11 12 12 12 12 12 13 13 13 12 12 13 13 11 12 11 10 9 9 9 7 4 4 2 2 2 2 2 2 2 1 1 1 1 1
3 4 5 6 7 9 9 9 10 11 12 12 13 13 13 13 13 14 14 14 13 14 12 12 12 15 11 12 10 10 9 8 7 6 6 6 6 6 5 5 5 4 4 3
3 3 4 5 7 8 8 9 10 10 11 12 13 13 14 14 14 13 14 14 13 14 12 13 15 16 15 10 11 12 11 11 11 11 10 9 8 8 8 8 8 8 8 7
3 3 4 4 6 7 8 9 9 9 10 11 11 11 11 13 13 12 12 13 14 13 13 14 14 15 13 11 12 12 13 13 13 13 12 13 11 11 11 11 11 11 11 11
3 3 3 4 5 7 7 8 8 9 9 10 10 11 11 12 13 13 12 12 14 12 12 14 14 14 11 12 12 12 13 13 14 14 13 13 13 13 13 13 13 13 13 13
3 3 3 3 4 5 6 7 8 8 8 10 10 10 10 10 10 11 11 12 11 12 11 12 11 11 11 11 12 12 12 12 12 13 13 13 13 13 13 13 13 13 13 13
2 5 3 3 4 5 5 6 7 8 8 8 9 9 10 10 11 11 12 12 12 11 11 11 11 12 11 11 11 11 11 12 13 12 12 13 13 13 13 12 12 12 12 13